Location: Church Tower
(37.7144°N, 119.6316°W)
Time: 20:38:26
(UTC+00:00)

Cosmos 1812 - Pass Details

Date: 15 November 2025
Orbit: 341 x 351 km, 82.5° (Epoch: 08 December)

Event Time Altitude Azimuth Distance (km) Brightness Sun altitude
Exits shadow 13:56:00 10° 319° (NW) 1,345 4.3 -8.8°
Reaches altitude 10° 13:56:06 10° 317° (NW) 1,311 4.2 -8.8°
Maximum altitude 13:58:11 19° 270° (W) 913 3.4 -8.4°
Drops below altitude 10° 14:00:10 11° 223° (SW) 1,265 4.4 -8.1°
Sets 14:02:30 0° 203° (SSW) 2,123 5.8 -7.6°
